AIC2031 VOBL-EDDM

Flight info

Callsign AIC2031
Flight time N/A
Altitude 36000
Route OPAMO7B OPAMO W56 BBB/N0496F370 G208 APANO/N0499F360 G451 AAE Z8 BEPDA/N0498F380 Z8 VIKIT P628 RK G202 ZB L750 RANAH B449 INRAK/N0489F400 B449 DUKAN L850 ADEKI N644 TETRO M10 SARPI UM10 GOKPA UL746 ODERO L746 LUGEB DCT MOPUG DCT SUNIS DCT AMADI Q113 NAPSA
Aircraft A359/H-SADE2E3GHIJ1J2J3J4J5M1P2RWXYZ/LB1D1

Departure

Time N/A
Airport Kempegowda International Airport Bengaluru (VOBL)

Arrival

Time 2026-05-07 08:37
Airport Munich Airport (EDDM)
Time Latitude Longitude Altitude Speed Heading
2026-05-07 07:17 45.04803 24.58412 40059 ft 451 kts 292°
2026-05-07 07:17 45.07318 24.50307 40058 ft 451 kts 292°
2026-05-07 07:18 45.09834 24.42170 40062 ft 452 kts 292°
2026-05-07 07:18 45.12335 24.34059 40062 ft 453 kts 292°
2026-05-07 07:19 45.14849 24.25880 40065 ft 453 kts 292°
2026-05-07 07:19 45.17356 24.17695 40062 ft 453 kts 292°
2026-05-07 07:20 45.19861 24.09492 40065 ft 454 kts 292°
2026-05-07 07:20 45.22365 24.01261 40068 ft 455 kts 292°
2026-05-07 07:21 45.24866 23.93019 40057 ft 455 kts 292°
2026-05-07 07:21 45.27360 23.84770 40070 ft 455 kts 292°
2026-05-07 07:22 45.29851 23.76506 40058 ft 455 kts 292°
2026-05-07 07:22 45.32343 23.68211 40054 ft 456 kts 292°
2026-05-07 07:23 45.34830 23.59904 40057 ft 457 kts 292°
2026-05-07 07:23 45.37316 23.51575 40072 ft 457 kts 291°
2026-05-07 07:24 45.39791 23.43256 40070 ft 456 kts 291°
2026-05-07 07:24 45.42246 23.34975 40068 ft 456 kts 291°
2026-05-07 07:25 45.45937 23.22474 40066 ft 457 kts 291°
2026-05-07 07:26 45.48391 23.14125 40046 ft 456 kts 291°
2026-05-07 07:26 45.50844 23.05753 40040 ft 458 kts 291°
2026-05-07 07:27 45.53296 22.97357 40035 ft 459 kts 291°
2026-05-07 07:27 45.55748 22.88931 40035 ft 459 kts 291°
2026-05-07 07:28 45.58191 22.80509 40044 ft 459 kts 291°
2026-05-07 07:28 45.60617 22.72117 40037 ft 461 kts 291°
2026-05-07 07:29 45.63063 22.63627 40037 ft 461 kts 291°
2026-05-07 07:29 45.65499 22.55142 40033 ft 461 kts 291°
2026-05-07 07:30 45.67928 22.46656 40051 ft 461 kts 290°
2026-05-07 07:30 45.70334 22.38213 40039 ft 462 kts 290°
2026-05-07 07:31 45.72752 22.29704 40032 ft 462 kts 290°
2026-05-07 07:31 45.75166 22.21181 40033 ft 461 kts 290°
2026-05-07 07:32 45.77566 22.12674 40051 ft 461 kts 290°
2026-05-07 07:32 45.79961 22.04158 40035 ft 460 kts 290°
2026-05-07 07:33 45.82341 21.95665 40033 ft 459 kts 290°
2026-05-07 07:33 45.84714 21.87163 40034 ft 459 kts 290°
2026-05-07 07:34 45.87079 21.78663 40032 ft 459 kts 290°
2026-05-07 07:34 45.89436 21.70165 40032 ft 457 kts 289°
2026-05-07 07:35 45.91779 21.61685 40033 ft 457 kts 289°
2026-05-07 07:35 45.94113 21.53205 40039 ft 456 kts 289°
2026-05-07 07:36 45.96442 21.44714 40044 ft 457 kts 289°
2026-05-07 07:36 45.98768 21.36206 40042 ft 458 kts 289°
2026-05-07 07:37 46.01090 21.27681 40043 ft 458 kts 289°
2026-05-07 07:37 46.03405 21.19151 40042 ft 458 kts 288°
2026-05-07 07:38 46.05716 21.10611 40042 ft 458 kts 288°
2026-05-07 07:38 46.08018 21.02066 40040 ft 457 kts 288°
2026-05-07 07:39 46.10311 20.93527 40036 ft 457 kts 288°
2026-05-07 07:39 46.12596 20.84986 40028 ft 457 kts 288°
2026-05-07 07:40 46.14875 20.76437 40025 ft 457 kts 288°
2026-05-07 07:40 46.17141 20.67881 40023 ft 456 kts 287°
2026-05-07 07:41 46.19280 20.59262 40021 ft 456 kts 286°
2026-05-07 07:41 46.21370 20.50621 40017 ft 456 kts 286°
2026-05-07 07:42 46.23469 20.41981 40020 ft 456 kts 286°
2026-05-07 07:42 46.25575 20.33341 40028 ft 456 kts 286°
2026-05-07 07:43 46.27683 20.24677 40025 ft 457 kts 285°
2026-05-07 07:43 46.29787 20.15996 40026 ft 458 kts 285°
2026-05-07 07:44 46.31885 20.07302 40017 ft 458 kts 285°
2026-05-07 07:44 46.33976 19.98604 40018 ft 458 kts 285°
2026-05-07 07:45 46.36060 19.89900 40016 ft 458 kts 285°
2026-05-07 07:45 46.38139 19.81186 40015 ft 458 kts 285°
2026-05-07 07:46 46.40210 19.72468 40015 ft 458 kts 285°
2026-05-07 07:46 46.42274 19.63747 40019 ft 458 kts 285°
2026-05-07 07:47 46.44332 19.55011 40005 ft 458 kts 285°
2026-05-07 07:47 46.46387 19.46256 40002 ft 459 kts 285°
2026-05-07 07:48 46.48435 19.37496 40004 ft 458 kts 285°
2026-05-07 07:48 46.50477 19.28731 40002 ft 459 kts 285°
2026-05-07 07:49 46.52512 19.19953 40003 ft 459 kts 285°
2026-05-07 07:49 46.54201 19.12642 40000 ft 459 kts 285°
2026-05-07 07:50 46.56227 19.03840 40007 ft 459 kts 284°
2026-05-07 07:50 46.58247 18.95032 40007 ft 459 kts 284°
2026-05-07 07:51 46.60260 18.86217 39999 ft 460 kts 284°
2026-05-07 07:51 46.62264 18.77403 40000 ft 460 kts 284°
2026-05-07 07:52 46.64265 18.68565 39996 ft 460 kts 284°
2026-05-07 07:52 46.66259 18.59724 39996 ft 460 kts 284°
2026-05-07 07:53 46.68246 18.50875 40002 ft 460 kts 284°
2026-05-07 07:53 46.70225 18.42030 39990 ft 459 kts 284°
2026-05-07 07:54 46.72195 18.33185 39992 ft 459 kts 284°
2026-05-07 07:54 46.74158 18.24333 39991 ft 459 kts 284°
2026-05-07 07:55 46.76113 18.15479 39999 ft 459 kts 284°
2026-05-07 07:55 46.78059 18.06632 39981 ft 457 kts 284°
2026-05-07 07:56 46.79995 17.97791 39982 ft 457 kts 284°
2026-05-07 07:56 46.81923 17.88952 39974 ft 457 kts 284°
2026-05-07 07:57 46.83843 17.80106 39976 ft 457 kts 283°
2026-05-07 07:57 46.85759 17.71243 39967 ft 459 kts 283°
2026-05-07 07:58 46.87675 17.62343 39974 ft 459 kts 283°
2026-05-07 07:58 46.89584 17.53440 39978 ft 459 kts 283°
2026-05-07 07:59 46.91486 17.44528 39979 ft 459 kts 283°
2026-05-07 07:59 46.93380 17.35616 39969 ft 460 kts 283°
2026-05-07 08:00 46.95273 17.26663 39970 ft 461 kts 283°
2026-05-07 08:00 46.97163 17.17692 39973 ft 461 kts 283°
2026-05-07 08:01 46.99045 17.08718 39967 ft 461 kts 283°
2026-05-07 08:01 47.00913 16.99775 39969 ft 460 kts 283°
2026-05-07 08:02 47.02777 16.90802 39963 ft 460 kts 283°
2026-05-07 08:02 47.04634 16.81828 39962 ft 460 kts 283°
2026-05-07 08:03 47.06485 16.72842 39966 ft 460 kts 283°
2026-05-07 08:03 47.08328 16.63852 39973 ft 460 kts 282°
2026-05-07 08:04 47.10163 16.54871 39959 ft 458 kts 282°
2026-05-07 08:04 47.11975 16.45954 39961 ft 458 kts 282°
2026-05-07 08:05 47.13794 16.36996 39960 ft 458 kts 283°
2026-05-07 08:05 47.16167 16.28245 39957 ft 462 kts 288°
2026-05-07 08:06 47.18714 16.19572 39953 ft 462 kts 289°
2026-05-07 08:06 47.21282 16.10912 39955 ft 462 kts 289°
2026-05-07 08:07 47.23838 16.02235 39950 ft 462 kts 289°
2026-05-07 08:07 47.26378 15.93547 39949 ft 462 kts 289°
2026-05-07 08:08 47.28910 15.84844 39952 ft 464 kts 288°
2026-05-07 08:08 47.31447 15.76084 39951 ft 465 kts 288°
2026-05-07 08:09 47.33984 15.67299 39955 ft 466 kts 288°
2026-05-07 08:09 47.36515 15.58518 39956 ft 465 kts 288°
2026-05-07 08:10 47.39039 15.49725 39959 ft 467 kts 288°
2026-05-07 08:10 47.41577 15.40840 39957 ft 471 kts 288°
2026-05-07 08:11 47.44118 15.31922 39962 ft 471 kts 288°
2026-05-07 08:11 47.46654 15.22988 39964 ft 471 kts 288°
2026-05-07 08:12 47.49181 15.14046 39972 ft 471 kts 288°
2026-05-07 08:12 47.51701 15.05102 39965 ft 471 kts 288°
2026-05-07 08:13 47.54210 14.96161 39969 ft 470 kts 288°
2026-05-07 08:13 47.56700 14.87252 39971 ft 470 kts 288°
2026-05-07 08:14 47.59193 14.78300 39991 ft 470 kts 288°
2026-05-07 08:14 47.61678 14.69342 39972 ft 469 kts 288°
2026-05-07 08:15 47.64149 14.60404 39974 ft 468 kts 288°
2026-05-07 08:15 47.66609 14.51471 39980 ft 467 kts 288°
2026-05-07 08:16 47.69061 14.42534 39974 ft 468 kts 288°
2026-05-07 08:16 47.71513 14.33554 39987 ft 469 kts 288°
2026-05-07 08:17 47.73961 14.24564 39989 ft 469 kts 288°
2026-05-07 08:17 47.76388 14.15620 39990 ft 469 kts 288°
2026-05-07 08:18 47.78819 14.06622 40000 ft 469 kts 288°
2026-05-07 08:18 47.81248 13.97602 39993 ft 469 kts 288°
2026-05-07 08:19 47.83663 13.88602 39759 ft 458 kts 288°
2026-05-07 08:19 47.84827 13.84269 38940 ft 452 kts 287°
2026-05-07 08:19 47.85849 13.80446 37670 ft 456 kts 287°
2026-05-07 08:19 47.87022 13.76028 36135 ft 461 kts 285°
2026-05-07 08:20 47.88205 13.71561 34677 ft 466 kts 284°
2026-05-07 08:20 47.89395 13.67065 33196 ft 467 kts 284°
2026-05-07 08:20 47.90583 13.62579 31789 ft 465 kts 284°
2026-05-07 08:20 47.91768 13.58104 30415 ft 463 kts 284°
2026-05-07 08:21 47.92944 13.53664 29036 ft 458 kts 284°
2026-05-07 08:21 47.94103 13.49282 27787 ft 450 kts 284°
2026-05-07 08:21 47.95238 13.44987 26659 ft 441 kts 284°
2026-05-07 08:21 47.96346 13.40778 25581 ft 432 kts 284°
2026-05-07 08:22 47.97432 13.36638 24540 ft 424 kts 285°
2026-05-07 08:22 47.98494 13.32573 23455 ft 417 kts 285°
2026-05-07 08:22 47.99537 13.28567 22217 ft 410 kts 285°
2026-05-07 08:22 48.00559 13.24635 21067 ft 403 kts 287°
2026-05-07 08:23 48.01561 13.20773 20012 ft 394 kts 287°
2026-05-07 08:23 48.02528 13.17048 19441 ft 374 kts 287°
2026-05-07 08:23 48.03454 13.13486 18958 ft 365 kts 287°
2026-05-07 08:23 48.04364 13.09961 18466 ft 363 kts 287°
2026-05-07 08:24 48.05266 13.06458 17937 ft 359 kts 288°
2026-05-07 08:24 48.06157 13.02992 17443 ft 355 kts 288°
2026-05-07 08:24 48.07039 12.99560 16974 ft 352 kts 288°
2026-05-07 08:24 48.07914 12.96154 16488 ft 350 kts 288°
2026-05-07 08:25 48.08742 12.92749 16026 ft 346 kts 283°
2026-05-07 08:25 48.09240 12.89317 15664 ft 339 kts 277°
2026-05-07 08:25 48.09621 12.85849 15228 ft 337 kts 276°
2026-05-07 08:25 48.09974 12.82348 14751 ft 335 kts 276°
2026-05-07 08:26 48.10883 12.75573 13951 ft 331 kts 288°
2026-05-07 08:26 48.11977 12.72555 13518 ft 331 kts 302°
2026-05-07 08:26 48.13403 12.69872 13061 ft 328 kts 307°
2026-05-07 08:27 48.14878 12.67302 12603 ft 323 kts 307°
2026-05-07 08:27 48.16327 12.64813 12166 ft 319 kts 307°
2026-05-07 08:27 48.17795 12.62297 11739 ft 314 kts 307°
2026-05-07 08:27 48.19209 12.59875 11324 ft 311 kts 307°
2026-05-07 08:28 48.20647 12.57412 10890 ft 309 kts 307°
2026-05-07 08:28 48.22038 12.55028 10466 ft 307 kts 307°
2026-05-07 08:28 48.23454 12.52599 10070 ft 304 kts 307°
2026-05-07 08:28 48.24822 12.50252 9701 ft 302 kts 307°
2026-05-07 08:29 48.26192 12.47886 9308 ft 299 kts 307°
2026-05-07 08:29 48.27498 12.45475 8919 ft 296 kts 304°
2026-05-07 08:29 48.28706 12.43000 8524 ft 292 kts 301°
2026-05-07 08:29 48.29813 12.40465 8138 ft 288 kts 298°
2026-05-07 08:30 48.30785 12.37876 7787 ft 280 kts 294°
2026-05-07 08:30 48.31654 12.35302 7465 ft 273 kts 293°
2026-05-07 08:30 48.32491 12.32786 7144 ft 266 kts 293°
2026-05-07 08:30 48.33306 12.30325 6821 ft 260 kts 292°
2026-05-07 08:31 48.33942 12.27831 6523 ft 252 kts 283°
2026-05-07 08:31 48.34353 12.25297 6235 ft 248 kts 280°
2026-05-07 08:31 48.34701 12.22764 5930 ft 247 kts 279°
2026-05-07 08:31 48.35023 12.20234 5615 ft 247 kts 279°
2026-05-07 08:32 48.35333 12.17695 5314 ft 247 kts 278°
2026-05-07 08:32 48.35638 12.15175 5014 ft 242 kts 278°
2026-05-07 08:32 48.35842 12.13505 4812 ft 239 kts 279°
2026-05-07 08:32 48.36230 12.10296 4472 ft 231 kts 278°
2026-05-07 08:33 48.36418 12.08708 4337 ft 225 kts 278°
2026-05-07 08:33 48.36476 12.06413 4174 ft 216 kts 266°
2026-05-07 08:33 48.36318 12.04213 4025 ft 206 kts 262°
2026-05-07 08:33 48.36140 12.02144 3996 ft 192 kts 263°
2026-05-07 08:34 48.35988 12.00249 4018 ft 173 kts 263°
2026-05-07 08:34 48.35856 11.98520 3936 ft 162 kts 263°
2026-05-07 08:34 48.35733 11.96851 3694 ft 159 kts 263°
2026-05-07 08:34 48.35609 11.95214 3481 ft 157 kts 263°
2026-05-07 08:35 48.35486 11.93609 3269 ft 156 kts 263°
2026-05-07 08:35 48.35362 11.91988 3059 ft 154 kts 263°
2026-05-07 08:35 48.35239 11.90394 2842 ft 149 kts 263°
2026-05-07 08:35 48.35122 11.88867 2643 ft 146 kts 263°
2026-05-07 08:36 48.35008 11.87385 2444 ft 140 kts 264°
2026-05-07 08:36 48.34900 11.85972 2248 ft 136 kts 264°
2026-05-07 08:36 48.34794 11.84583 2059 ft 130 kts 263°
2026-05-07 08:36 48.34692 11.83259 1885 ft 127 kts 263°
2026-05-07 08:37 48.34591 11.81948 1697 ft 125 kts 264°
2026-05-07 08:37 48.34495 11.80656 1522 ft 124 kts 263°
2026-05-07 08:37 48.34402 11.79430 1489 ft 99 kts 263°
2026-05-07 08:37 48.34361 11.78750 1480 ft 41 kts 275°
2026-05-07 08:38 48.34441 11.78374 1479 ft 28 kts 293°
2026-05-07 08:38 48.34478 11.78244 1484 ft 13 kts 293°
2026-05-07 08:38 48.34521 11.78118 1476 ft 14 kts 310°
2026-05-07 08:38 48.34616 11.78072 1486 ft 16 kts 353°
2026-05-07 08:39 48.34684 11.78164 1479 ft 16 kts 76°
2026-05-07 08:39 48.34697 11.78340 1479 ft 18 kts 83°
2026-05-07 08:39 48.34713 11.78545 1480 ft 21 kts 83°
2026-05-07 08:39 48.34731 11.78777 1487 ft 24 kts 83°
2026-05-07 08:40 48.34751 11.79035 1481 ft 26 kts 83°
2026-05-07 08:40 48.34771 11.79290 1481 ft 11 kts 83°
2026-05-07 08:40 48.34780 11.79418 1489 ft 14 kts 83°
2026-05-07 08:40 48.34814 11.79544 1483 ft 12 kts 25°
2026-05-07 08:41 48.34900 11.79550 1485 ft 13 kts 353°
2026-05-07 08:41 48.34981 11.79598 1478 ft 14 kts 63°
2026-05-07 08:41 48.35064 11.79657 1483 ft 15 kts 356°
2026-05-07 08:41 48.35176 11.79638 1492 ft 17 kts 353°
2026-05-07 08:42 48.35290 11.79620 1487 ft 10 kts
2026-05-07 08:42 48.35313 11.79680 1481 ft 7 kts 84°
2026-05-07 08:42 48.35319 11.79757 1492 ft 0 kts 83°